TimeMST,TemperatureF,Dew PointF,Humidity,Sea Level PressureIn,VisibilityMPH,Wind Direction,Wind SpeedMPH,Gust SpeedMPH,PrecipitationIn,Events,Conditions,WindDirDegrees,DateUTC
12:53 AM,6.1,1.0,80,30.08,10.0,West,6.9,-,N/A,,Clear,270,2012-12-28 07:53:00
1:53 AM,1.9,-2.9,80,30.11,10.0,NW,9.2,-,N/A,,Clear,310,2012-12-28 08:53:00
2:53 AM,1.0,-4.0,79,30.12,10.0,West,5.8,-,N/A,,Clear,280,2012-12-28 09:53:00
3:53 AM,3.2,-2.2,78,29.90,10.0,West,5.8,-,N/A,,Clear,280,2012-12-28 10:53:00
4:53 AM,1.0,-4.0,79,30.13,10.0,NNW,3.5,-,N/A,,Clear,340,2012-12-28 11:53:00
5:53 AM,-0.0,-5.1,79,30.16,10.0,Calm,Calm,-,N/A,,Clear,0,2012-12-28 12:53:00
6:53 AM,3.0,-0.9,84,30.17,10.0,WSW,3.5,-,N/A,,Mostly Cloudy,240,2012-12-28 13:53:00
7:53 AM,1.9,-2.9,80,30.19,2.5,WSW,5.8,-,N/A,,Haze,250,2012-12-28 14:53:00
8:01 AM,1.4,-2.2,85,29.94,10.0,WSW,4.6,-,N/A,,Mostly Cloudy,250,2012-12-28 15:01:00
8:53 AM,5.0,-0.0,80,30.22,10.0,Calm,Calm,-,N/A,,Overcast,0,2012-12-28 15:53:00
9:53 AM,3.9,1.0,88,30.24,10.0,Calm,Calm,-,N/A,,Overcast,0,2012-12-28 16:53:00
10:53 AM,6.1,1.9,83,30.22,10.0,Calm,Calm,-,N/A,,Scattered Clouds,0,2012-12-28 17:53:00
11:53 AM,9.0,7.0,92,30.21,10.0,Calm,Calm,-,N/A,,Clear,0,2012-12-28 18:53:00
12:53 PM,10.0,5.0,80,30.21,10.0,ENE,4.6,-,N/A,,Clear,60,2012-12-28 19:53:00
1:53 PM,10.9,3.9,73,30.22,10.0,Calm,Calm,-,N/A,,Clear,0,2012-12-28 20:53:00
2:53 PM,10.9,5.0,77,30.23,10.0,Calm,Calm,-,N/A,,Clear,0,2012-12-28 21:53:00
3:53 PM,12.0,3.9,70,30.22,10.0,Calm,Calm,-,N/A,,Clear,0,2012-12-28 22:53:00
4:53 PM,7.0,1.9,80,30.27,10.0,Variable,3.5,-,N/A,,Clear,0,2012-12-28 23:53:00
5:53 PM,1.9,-2.9,80,30.31,10.0,NW,3.5,-,N/A,,Clear,320,2012-12-29 00:53:00
6:53 PM,7.0,-0.0,73,30.28,10.0,Calm,Calm,-,N/A,,Clear,0,2012-12-29 01:53:00
7:53 PM,6.1,-0.0,76,30.30,10.0,Calm,Calm,-,N/A,,Clear,0,2012-12-29 02:53:00
8:53 PM,3.9,-0.9,80,30.30,10.0,South,5.8,-,N/A,,Clear,190,2012-12-29 03:53:00
9:53 PM,1.4,-2.2,85,30.03,10.0,SW,4.6,-,N/A,,Clear,230,2012-12-29 04:53:00
10:53 PM,1.0,-2.9,83,30.34,10.0,Calm,Calm,-,N/A,,Clear,0,2012-12-29 05:53:00
11:53 PM,1.9,-2.0,83,30.33,10.0,Calm,Calm,-,N/A,,Clear,0,2012-12-29 06:53:00